TUI284N EDHL-EDDN

Flight info

Callsign TUI284N
Flight time 0h 48m
Altitude FL370
Route RAMA2A RAMAR Z990 HLZ ZUCKA GALMA M736 TABAT Q244 PIVIR PIVI1T
Aircraft B38M/M-SDE1FGHILORVWXY/HB1

Departure

Time 2026-04-28 18:34
Airport Lübeck Blankensee Airport (EDHL)

Arrival

Time 2026-04-28 19:23
Airport Nuremberg Airport (EDDN)
Time Latitude Longitude Altitude Speed Heading
2026-04-28 18:09 53.80474 10.70321 52 ft 0 kts 325°
2026-04-28 18:26 53.80461 10.70336 53 ft 4 kts 328°
2026-04-28 18:26 53.80440 10.70359 52 ft 2 kts 320°
2026-04-28 18:26 53.80434 10.70372 52 ft 2 kts 272°
2026-04-28 18:27 53.80436 10.70390 54 ft 2 kts 251°
2026-04-28 18:27 53.80436 10.70393 54 ft 0 kts 251°
2026-04-28 18:30 53.80435 10.70387 57 ft 2 kts 251°
2026-04-28 18:31 53.80429 10.70355 61 ft 4 kts 252°
2026-04-28 18:31 53.80416 10.70288 57 ft 8 kts 252°
2026-04-28 18:31 53.80400 10.70200 56 ft 5 kts 252°
2026-04-28 18:31 53.80389 10.70143 53 ft 5 kts 242°
2026-04-28 18:32 53.80375 10.70128 61 ft 2 kts 195°
2026-04-28 18:32 53.80359 10.70127 56 ft 3 kts 178°
2026-04-28 18:32 53.80327 10.70132 57 ft 9 kts 172°
2026-04-28 18:32 53.80244 10.70158 58 ft 14 kts 168°
2026-04-28 18:33 53.80201 10.70220 57 ft 8 kts 86°
2026-04-28 18:33 53.80226 10.70320 59 ft 12 kts 70°
2026-04-28 18:33 53.80234 10.70362 57 ft 0 kts 72°
2026-04-28 18:33 53.80273 10.70571 57 ft 59 kts 72°
2026-04-28 18:34 53.80491 10.71711 59 ft 141 kts 71°
2026-04-28 18:34 53.80855 10.73493 536 ft 172 kts 70°
2026-04-28 18:34 53.81245 10.75476 1464 ft 181 kts 70°
2026-04-28 18:34 53.81615 10.77528 2316 ft 188 kts 71°
2026-04-28 18:35 53.82029 10.79740 2719 ft 206 kts 69°
2026-04-28 18:35 53.82493 10.82141 3163 ft 224 kts 69°
2026-04-28 18:35 53.82996 10.84744 3505 ft 239 kts 69°
2026-04-28 18:35 53.83422 10.87500 3798 ft 247 kts 84°
2026-04-28 18:36 53.83126 10.90372 4109 ft 254 kts 114°
2026-04-28 18:36 53.82038 10.92699 4379 ft 256 kts 144°
2026-04-28 18:36 53.80518 10.94254 4673 ft 257 kts 156°
2026-04-28 18:36 53.78772 10.94828 5071 ft 264 kts 188°
2026-04-28 18:37 53.76913 10.94414 5742 ft 276 kts 188°
2026-04-28 18:37 53.74999 10.94249 6699 ft 277 kts 186°
2026-04-28 18:37 53.73065 10.94062 7584 ft 281 kts 186°
2026-04-28 18:37 53.71094 10.93871 8106 ft 286 kts 186°
2026-04-28 18:38 53.69113 10.93656 8489 ft 286 kts 186°
2026-04-28 18:38 53.67121 10.93448 8872 ft 288 kts 186°
2026-04-28 18:38 53.65117 10.93226 9254 ft 290 kts 186°
2026-04-28 18:38 53.63105 10.93004 9630 ft 291 kts 187°
2026-04-28 18:39 53.61083 10.92773 10046 ft 295 kts 187°
2026-04-28 18:39 53.59030 10.92557 10857 ft 300 kts 187°
2026-04-28 18:39 53.56894 10.92326 11330 ft 318 kts 187°
2026-04-28 18:39 53.54657 10.92085 11982 ft 327 kts 187°
2026-04-28 18:40 53.52389 10.91830 12901 ft 329 kts 187°
2026-04-28 18:40 53.50097 10.91589 13749 ft 333 kts 187°
2026-04-28 18:40 53.47776 10.91340 14599 ft 336 kts 188°
2026-04-28 18:40 53.45436 10.91086 15448 ft 340 kts 188°
2026-04-28 18:41 53.43067 10.90829 16253 ft 344 kts 188°
2026-04-28 18:41 53.40674 10.90565 17037 ft 348 kts 188°
2026-04-28 18:41 53.38251 10.90294 17797 ft 351 kts 188°
2026-04-28 18:41 53.35805 10.90025 18527 ft 355 kts 188°
2026-04-28 18:42 53.33333 10.89760 19224 ft 358 kts 188°
2026-04-28 18:42 53.30837 10.89490 19902 ft 362 kts 188°
2026-04-28 18:42 53.28319 10.89217 20568 ft 365 kts 187°
2026-04-28 18:42 53.25775 10.88944 21162 ft 369 kts 187°
2026-04-28 18:43 53.23207 10.88672 21799 ft 372 kts 187°
2026-04-28 18:43 53.20618 10.88392 22412 ft 375 kts 187°
2026-04-28 18:43 53.18010 10.88109 22996 ft 379 kts 187°
2026-04-28 18:43 53.15376 10.87826 23569 ft 382 kts 187°
2026-04-28 18:44 53.12721 10.87542 24120 ft 385 kts 187°
2026-04-28 18:44 53.07337 10.86983 25140 ft 392 kts 187°
2026-04-28 18:44 53.04604 10.86689 25597 ft 396 kts 187°
2026-04-28 18:45 53.01845 10.86387 26043 ft 400 kts 187°
2026-04-28 18:45 52.99059 10.86089 26498 ft 404 kts 187°
2026-04-28 18:45 52.96247 10.85797 26940 ft 407 kts 187°
2026-04-28 18:45 52.93413 10.85494 27352 ft 411 kts 187°
2026-04-28 18:46 52.90550 10.85181 27698 ft 416 kts 187°
2026-04-28 18:46 52.87635 10.84867 27921 ft 425 kts 186°
2026-04-28 18:46 52.84653 10.84550 28065 ft 435 kts 185°
2026-04-28 18:46 52.81635 10.84239 28539 ft 436 kts 185°
2026-04-28 18:47 52.78604 10.83926 28911 ft 439 kts 185°
2026-04-28 18:47 52.75551 10.83599 29303 ft 442 kts 185°
2026-04-28 18:47 52.72486 10.83274 29721 ft 443 kts 185°
2026-04-28 18:47 52.69403 10.82952 30070 ft 447 kts 185°
2026-04-28 18:48 52.66300 10.82626 30435 ft 449 kts 185°
2026-04-28 18:48 52.63181 10.82300 30799 ft 452 kts 185°
2026-04-28 18:48 52.60045 10.81982 31110 ft 455 kts 185°
2026-04-28 18:48 52.56885 10.81654 31470 ft 457 kts 185°
2026-04-28 18:49 52.53711 10.81313 31777 ft 460 kts 185°
2026-04-28 18:49 52.52648 10.81201 31881 ft 461 kts 185°
2026-04-28 18:49 52.47307 10.80648 32420 ft 464 kts 185°
2026-04-28 18:49 52.44079 10.80327 32721 ft 467 kts 185°
2026-04-28 18:50 52.40832 10.79991 32999 ft 470 kts 185°
2026-04-28 18:50 52.37566 10.79642 33311 ft 472 kts 185°
2026-04-28 18:50 52.34283 10.79606 33631 ft 475 kts 175°
2026-04-28 18:50 52.31013 10.80389 33911 ft 477 kts 172°
2026-04-28 18:51 52.27705 10.80886 34144 ft 480 kts 179°
2026-04-28 18:51 52.24375 10.81127 34497 ft 481 kts 174°
2026-04-28 18:51 52.21059 10.81794 34867 ft 480 kts 175°
2026-04-28 18:51 52.17738 10.82276 35213 ft 480 kts 175°
2026-04-28 18:52 52.14421 10.82782 35585 ft 479 kts 175°
2026-04-28 18:52 52.11108 10.83277 35813 ft 481 kts 175°
2026-04-28 18:52 52.07781 10.83764 35661 ft 479 kts 176°
2026-04-28 18:52 52.04475 10.84239 35414 ft 477 kts 176°
2026-04-28 18:53 52.01178 10.84720 35309 ft 477 kts 175°
2026-04-28 18:53 51.97882 10.85206 35318 ft 477 kts 176°
2026-04-28 18:53 51.91298 10.86177 35503 ft 472 kts 177°
2026-04-28 18:54 51.88046 10.86647 35860 ft 471 kts 177°
2026-04-28 18:54 51.84793 10.87133 36238 ft 469 kts 177°
2026-04-28 18:54 51.81562 10.87611 36621 ft 467 kts 177°
2026-04-28 18:54 51.78341 10.88074 37003 ft 464 kts 177°
2026-04-28 18:55 51.75133 10.88534 37290 ft 464 kts 177°
2026-04-28 18:55 51.72988 10.88859 37323 ft 467 kts 176°
2026-04-28 18:55 51.68745 10.90359 37274 ft 473 kts 158°
2026-04-28 18:55 51.65947 10.93107 37293 ft 473 kts 138°
2026-04-28 18:56 51.63765 10.97030 37303 ft 472 kts 124°
2026-04-28 18:56 51.61887 11.01364 37285 ft 474 kts 127°
2026-04-28 18:56 51.57540 11.09289 37279 ft 473 kts 127°
2026-04-28 18:57 51.53524 11.17609 37294 ft 472 kts 128°
2026-04-28 18:57 51.49434 11.25879 37213 ft 474 kts 128°
2026-04-28 18:58 51.47380 11.29992 36974 ft 473 kts 128°
2026-04-28 18:58 51.45333 11.34085 36717 ft 472 kts 128°
2026-04-28 18:58 51.43273 11.38169 36458 ft 472 kts 130°
2026-04-28 18:58 51.40944 11.41830 36162 ft 470 kts 146°
2026-04-28 18:59 51.38080 11.44254 35856 ft 466 kts 164°
2026-04-28 18:59 51.34923 11.45259 35594 ft 464 kts 179°
2026-04-28 18:59 51.31701 11.45456 35349 ft 466 kts 181°
2026-04-28 18:59 51.28464 11.45948 35082 ft 471 kts 175°
2026-04-28 19:00 51.25221 11.46464 34832 ft 470 kts 180°
2026-04-28 19:00 51.21955 11.46800 34580 ft 472 kts 180°
2026-04-28 19:00 51.18688 11.47148 34322 ft 472 kts 180°
2026-04-28 19:00 51.15419 11.47462 34063 ft 471 kts 180°
2026-04-28 19:01 51.12152 11.47776 33804 ft 471 kts 181°
2026-04-28 19:01 51.08885 11.48090 33552 ft 472 kts 181°
2026-04-28 19:01 51.05616 11.48403 33284 ft 471 kts 181°
2026-04-28 19:01 51.02360 11.48712 33028 ft 470 kts 181°
2026-04-28 19:02 50.99124 11.48916 32746 ft 463 kts 187°
2026-04-28 19:02 50.95949 11.48452 32495 ft 457 kts 192°
2026-04-28 19:02 50.92786 11.48083 32229 ft 459 kts 184°
2026-04-28 19:02 50.89598 11.48151 31915 ft 457 kts 186°
2026-04-28 19:03 50.86420 11.47911 31369 ft 460 kts 187°
2026-04-28 19:03 50.83212 11.47762 30737 ft 463 kts 186°
2026-04-28 19:03 50.80002 11.47597 30098 ft 462 kts 187°
2026-04-28 19:03 50.76801 11.47417 29466 ft 461 kts 187°
2026-04-28 19:04 50.73603 11.47250 28827 ft 461 kts 187°
2026-04-28 19:04 50.70449 11.46659 28170 ft 455 kts 199°
2026-04-28 19:04 50.67562 11.44795 27537 ft 446 kts 213°
2026-04-28 19:04 50.64871 11.42414 26875 ft 441 kts 212°
2026-04-28 19:05 50.62045 11.40666 25311 ft 441 kts 199°
2026-04-28 19:05 50.59102 11.39417 23771 ft 435 kts 203°
2026-04-28 19:05 50.56320 11.37693 22315 ft 428 kts 204°
2026-04-28 19:05 50.53548 11.36088 20854 ft 423 kts 204°
2026-04-28 19:06 50.50820 11.34492 19524 ft 416 kts 203°
2026-04-28 19:06 50.49078 11.33474 19735 ft 389 kts 203°
2026-04-28 19:06 50.45723 11.31509 18955 ft 366 kts 203°
2026-04-28 19:06 50.43369 11.30130 18435 ft 370 kts 204°
2026-04-28 19:07 50.40949 11.28689 17734 ft 370 kts 204°
2026-04-28 19:07 50.38533 11.27266 17393 ft 375 kts 202°
2026-04-28 19:07 50.36085 11.25864 17037 ft 375 kts 202°
2026-04-28 19:07 50.33647 11.24454 16667 ft 374 kts 202°
2026-04-28 19:08 50.31222 11.23034 16280 ft 372 kts 202°
2026-04-28 19:08 50.28809 11.21623 15889 ft 369 kts 202°
2026-04-28 19:08 50.26413 11.20239 15364 ft 366 kts 202°
2026-04-28 19:08 50.24041 11.18853 14851 ft 364 kts 202°
2026-04-28 19:09 50.21680 11.17481 14345 ft 362 kts 202°
2026-04-28 19:09 50.19334 11.16126 13877 ft 359 kts 201°
2026-04-28 19:09 50.16998 11.14786 13414 ft 357 kts 202°
2026-04-28 19:09 50.14675 11.13446 12966 ft 355 kts 202°
2026-04-28 19:10 50.12406 11.12126 12561 ft 339 kts 202°
2026-04-28 19:10 50.10269 11.10886 12192 ft 318 kts 201°
2026-04-28 19:10 50.08243 11.09716 11818 ft 305 kts 201°
2026-04-28 19:10 50.06264 11.08587 11435 ft 302 kts 201°
2026-04-28 19:11 50.04305 11.07455 11229 ft 300 kts 201°
2026-04-28 19:11 50.02349 11.06322 11183 ft 301 kts 201°
2026-04-28 19:11 50.00389 11.05203 10974 ft 300 kts 200°
2026-04-28 19:11 49.98439 11.04093 10597 ft 298 kts 200°
2026-04-28 19:12 49.96509 11.02978 10217 ft 295 kts 200°
2026-04-28 19:12 49.94598 11.01874 9839 ft 293 kts 199°
2026-04-28 19:12 49.92694 11.00782 9459 ft 291 kts 199°
2026-04-28 19:12 49.90797 10.99708 9080 ft 290 kts 198°
2026-04-28 19:13 49.88909 10.98636 8700 ft 289 kts 199°
2026-04-28 19:13 49.87032 10.97558 8339 ft 288 kts 198°
2026-04-28 19:13 49.85163 10.96495 8189 ft 287 kts 198°
2026-04-28 19:13 49.83290 10.95439 8179 ft 287 kts 198°
2026-04-28 19:14 49.81419 10.94367 8173 ft 287 kts 198°
2026-04-28 19:14 49.79549 10.93294 8017 ft 287 kts 198°
2026-04-28 19:14 49.77684 10.92244 7616 ft 284 kts 198°
2026-04-28 19:14 49.75843 10.91155 7240 ft 284 kts 200°
2026-04-28 19:15 49.74027 10.89988 6868 ft 283 kts 200°
2026-04-28 19:15 49.72241 10.88831 6463 ft 273 kts 200°
2026-04-28 19:15 49.70535 10.87707 6079 ft 261 kts 200°
2026-04-28 19:15 49.69439 10.86980 5821 ft 254 kts 200°
2026-04-28 19:16 49.67318 10.85563 5310 ft 247 kts 199°
2026-04-28 19:16 49.65734 10.84701 4989 ft 235 kts 194°
2026-04-28 19:16 49.64222 10.83966 4664 ft 224 kts 194°
2026-04-28 19:16 49.62766 10.83249 4259 ft 217 kts 194°
2026-04-28 19:17 49.61347 10.82565 3871 ft 212 kts 194°
2026-04-28 19:17 49.59947 10.81888 3567 ft 211 kts 194°
2026-04-28 19:17 49.58550 10.81221 3314 ft 209 kts 194°
2026-04-28 19:17 49.57185 10.80573 3041 ft 203 kts 193°
2026-04-28 19:18 49.55851 10.79939 2838 ft 200 kts 194°
2026-04-28 19:18 49.54525 10.79329 2814 ft 199 kts 194°
2026-04-28 19:18 49.53181 10.78841 2861 ft 198 kts 178°
2026-04-28 19:18 49.51984 10.79549 2909 ft 182 kts 128°
2026-04-28 19:19 49.51591 10.81273 2968 ft 172 kts 81°
2026-04-28 19:19 49.51880 10.83053 3050 ft 173 kts 73°
2026-04-28 19:19 49.52036 10.84888 2998 ft 175 kts 87°
2026-04-28 19:19 49.51936 10.86752 2998 ft 176 kts 95°
2026-04-28 19:20 49.51752 10.88617 2991 ft 177 kts 95°
2026-04-28 19:20 49.51567 10.90491 2938 ft 178 kts 95°
2026-04-28 19:20 49.51384 10.92342 2759 ft 168 kts 95°
2026-04-28 19:20 49.51222 10.93988 2555 ft 147 kts 95°
2026-04-28 19:21 49.51078 10.95486 2376 ft 140 kts 95°
2026-04-28 19:21 49.50926 10.96961 2208 ft 141 kts 95°
2026-04-28 19:21 49.50787 10.98452 2016 ft 141 kts 94°
2026-04-28 19:21 49.50642 10.99937 1834 ft 141 kts 95°
2026-04-28 19:22 49.50493 11.01422 1660 ft 141 kts 95°
2026-04-28 19:22 49.50446 11.01917 1605 ft 141 kts 95°
2026-04-28 19:22 49.50203 11.04387 1270 ft 140 kts 96°
2026-04-28 19:22 49.50064 11.05866 1082 ft 140 kts 97°
2026-04-28 19:23 49.49922 11.07271 1030 ft 118 kts 98°
2026-04-28 19:23 49.49837 11.08171 1028 ft 45 kts 100°
2026-04-28 19:23 49.49805 11.08456 1032 ft 9 kts 104°
2026-04-28 19:23 49.49770 11.08556 1031 ft 12 kts 156°
2026-04-28 19:24 49.49696 11.08539 1033 ft 11 kts 216°
2026-04-28 19:24 49.49659 11.08474 1033 ft 1 kts 233°
2026-04-28 19:24 49.49648 11.08451 1032 ft 4 kts 235°
2026-04-28 19:24 49.49632 11.08415 1033 ft 0 kts 227°
2026-04-28 19:25 49.49619 11.08394 1033 ft 4 kts 225°
2026-04-28 19:26 49.49592 11.08368 1034 ft 5 kts 199°
2026-04-28 19:26 49.49560 11.08357 1035 ft 5 kts 200°
2026-04-28 19:26 49.49538 11.08304 1034 ft 8 kts 263°
2026-04-28 19:26 49.49541 11.08227 1033 ft 8 kts 276°
2026-04-28 19:27 49.49549 11.08124 1032 ft 9 kts 279°
2026-04-28 19:27 49.49554 11.08083 1032 ft 0 kts 279°
2026-04-28 19:27 49.49555 11.08072 1032 ft 3 kts 280°
2026-04-28 19:27 49.49563 11.07998 1032 ft 7 kts 280°
2026-04-28 19:28 49.49573 11.07917 1033 ft 9 kts 276°
2026-04-28 19:28 49.49575 11.07882 1033 ft 1 kts 277°
2026-04-28 19:28 49.49577 11.07855 1033 ft 4 kts 277°
2026-04-28 19:28 49.49579 11.07825 1032 ft 0 kts 272°
2026-04-28 19:29 49.49578 11.07812 1032 ft 5 kts 255°
2026-04-28 19:29 49.49564 11.07802 1032 ft 4 kts 187°
2026-04-28 19:29 49.49534 11.07795 1031 ft 0 kts 187°
2026-04-28 19:29 49.49530 11.07794 1030 ft 0 kts 187°
2026-04-28 19:30 49.49529 11.07794 1030 ft 0 kts 188°
2026-04-28 19:30 49.49522 11.07792 1030 ft 2 kts 189°
2026-04-28 19:30 49.49520 11.07792 1030 ft 0 kts 188°